EDT,Max TemperatureF,Mean TemperatureF,Min TemperatureF,Max Dew PointF,MeanDew PointF,Min DewpointF,Max Humidity, Mean Humidity, Min Humidity, Max Sea Level PressureIn, Mean Sea Level PressureIn, Min Sea Level PressureIn, Max VisibilityMiles, Mean VisibilityMiles, Min VisibilityMiles, Max Wind SpeedMPH, Mean Wind SpeedMPH, Max Gust SpeedMPH,PrecipitationIn, CloudCover, Events, WindDirDegrees
2011-9-1,87,78,68,75,70,66,97,78,59,30.13,30.07,29.99,10,7,2,8,2,12,0.01,1,Rain,188
2011-9-2,97,85,72,75,71,67,94,68,41,30.07,29.99,29.94,9,7,3,8,3,13,0.00,0,,208
2011-9-3,98,85,71,74,70,64,100,69,38,30.00,29.94,29.84,10,6,0,17,2,26,0.00,0,Fog-Thunderstorm,180
2011-9-4,86,77,67,72,68,66,100,81,61,29.91,29.86,29.79,10,7,1,20,4,32,0.49,3,Rain-Thunderstorm,165
2011-9-5,68,64,59,67,62,57,100,95,90,29.92,29.86,29.81,10,6,2,16,8,21,1.29,7,Rain,4
2011-9-6,62,60,57,59,57,55,100,92,84,29.90,29.86,29.81,10,7,2,18,10,26,0.57,8,Rain,40
2011-9-7,68,64,60,63,61,58,100,88,76,29.94,29.88,29.83,10,9,4,8,3,12,0.04,7,Rain,262
2011-9-8,69,64,59,61,59,57,97,88,78,29.96,29.93,29.91,10,10,8,9,3,13,0.00,8,,241
2011-9-9,69,65,60,62,61,59,100,89,78,29.99,29.95,29.91,10,6,2,5,1,7,0.14,8,Rain,276
2011-9-10,77,68,58,65,61,57,100,77,54,30.05,30.01,29.99,10,4,0,8,1,10,0.00,7,Fog,129
2011-9-11,79,68,57,64,61,57,100,77,54,30.09,30.05,30.01,10,4,0,3,2,3,T,3,Fog-Rain-Thunderstorm,200
2011-9-12,80,69,57,64,60,57,100,77,54,30.14,30.06,30.01,10,9,2,9,2,12,0.00,1,Thunderstorm,209
2011-9-13,84,73,61,64,62,59,100,74,47,30.05,29.99,29.93,10,8,2,13,4,17,0.00,0,,208
2011-9-14,85,74,63,69,64,60,93,72,51,29.99,29.94,29.88,10,10,8,16,4,22,0.00,1,,218
2011-9-15,64,57,49,60,53,47,100,82,64,30.29,30.11,29.96,10,7,2,15,7,21,0.15,6,Rain,5
2011-9-16,64,55,45,46,43,41,86,67,48,30.35,30.30,30.25,10,10,10,17,6,22,0.00,0,,60
2011-9-17,73,62,50,57,51,46,93,73,53,30.28,30.24,30.20,10,10,4,5,2,6,0.00,4,,84
2011-9-18,74,63,51,63,56,50,100,79,57,30.28,30.23,30.17,10,7,0,12,2,61,0.00,4,Fog,110
2011-9-19,71,65,58,64,60,53,100,87,73,30.15,30.08,30.02,10,6,1,9,2,13,1.01,6,Rain,179
2011-9-20,77,70,63,66,64,63,100,80,60,30.13,30.07,30.03,10,6,1,6,2,10,0.04,6,Rain,199
2011-9-21,74,67,59,68,64,60,100,90,79,30.09,30.06,30.00,10,5,0,10,3,15,0.06,3,Fog-Rain,164
2011-9-22,80,73,65,67,65,60,100,77,54,30.13,30.08,30.04,10,5,1,7,4,,0.00,6,,181
2011-9-23,67,61,55,64,59,54,100,92,84,30.06,29.99,29.93,10,6,2,14,3,18,0.11,8,Rain,307
2011-9-24,71,62,53,56,54,52,100,79,57,30.09,30.04,30.00,10,6,0,7,2,10,0.00,4,Fog,187
2011-9-25,79,67,54,65,59,55,100,74,48,30.03,29.96,29.85,10,5,0,8,2,13,0.00,2,Fog,101
2011-9-26,80,67,53,65,59,54,100,82,64,29.93,29.84,29.75,10,7,0,22,5,31,0.49,4,Fog-Rain-Thunderstorm,195
2011-9-27,72,62,52,58,54,50,100,74,47,29.93,29.90,29.84,10,4,0,12,2,18,0.00,5,Fog,195
2011-9-28,73,64,55,57,55,52,100,73,46,29.90,29.84,29.79,10,10,6,12,3,16,0.01,6,,218
2011-9-29,74,64,54,56,54,51,100,73,46,29.87,29.82,29.71,10,5,0,17,6,24,0.01,4,Fog-Rain,223
2011-9-30,61,53,45,54,48,44,96,78,60,29.95,29.86,29.77,10,9,2,16,7,24,0.10,7,Rain,264